Vorticity
10 9 2 7 9 9 8 4 10 6 -8 13 -4 4 8 17 20 11 6 12 7 3 -0 0 -3 0 2 3 11 13 3 2
32 1 8 8 5 1 1 1 5 5 -7 10 -5 13 17 18 15 16 2 -1 7 4 11 -2 0 5 6 17 12 2 4 5
15 6 4 3 -2 15 8 1 -7 -8 4 4 1 12 5 9 0 0 13 -4 5 8 -4 4 7 2 19 0 4 4 3 4
0 0 10 -5 8 -10 9 18 -10 3 -20 -15 4 18 2 17 3 24 4 11 2 -1 4 4 7 17 4 4 4 3 4 2
4 6 -11 8 93 11 -0 49 -23 3 37 5 10 9 14 32 12 17 11 -3 1 4 5 6 15 2 5 4 3 2 3 3
4 -0 -7 13 19 -0 2 7 4 -24 1 76 -6 -1 7 25 17 -0 -1 -0 5 7 8 18 2 5 3 2 3 2 5 2
-1 4 2 4 -3 11 -6 18 -6 8 -6 12 21 48 31 9 3 -0 4 1 4 10 6 2 5 1 2 2 2 3 3 6
-1 1 -15 1 14 -23 14 7 -1 -12 16 7 -7 30 -2 1 2 6 1 0 16 9 3 4 0 1 2 2 3 3 5 6
4 -9 21 -2 -6 -4 2 11 9 4 62 62 7 -3 6 9 4 -6 4 20 4 3 3 0 1 2 2 3 4 4 5 3
9 28 12 19 44 11 0 6 40 60 1 1 5 -0 -5 -5 8 3 12 2 3 3 1 1 2 2 3 4 4 5 8 5
36 19 25 39 36 43 31 24 13 6 -1 -2 1 2 7 8 4 11 3 3 2 1 2 2 2 4 5 4 7 5 4 4
28 21 9 -2 13 19 3 2 2 -2 3 2 3 5 4 11 8 3 3 2 1 2 2 3 4 6 5 9 3 7 9 8
22 13 23 3 1 3 2 4 2 4 3 4 4 3 11 5 2 2 1 1 2 2 3 6 3 6 9 6 4 4 7 7
-1 3 1 0 3 5 3 2 -0 2 4 6 9 17 -2 2 2 2 1 2 2 4 3 3 6 9 5 2 6 13 4 1
3 3 5 4 4 4 4 6 9 6 6 8 11 4 1 2 2 2 3 2 -0 4 3 11 12 -5 9 6 9 -0 6 6
5 5 6 7 4 5 7 9 7 6 8 10 9 4 1 -1 2 4 8 6 -1 3 8 14 0 5 0 -5 15 4 -1 -3
4 5 6 6 7 7 8 7 8 10 10 4 3 3 31 -6 1 1 18 1 -0 15 10 9 2 2 1 2 3 4 3 -2
9 5 10 8 6 5 7 8 10 4 3 2 0 3 -4 55 -15 -2 5 1 14 7 6 4 5 3 -2 -2 7 3 5 13
6 7 8 8 9 9 8 13 9 5 13 20 -2 2 -0 3 5 13 10 0 -3 5 3 2 5 3 -6 4 5 4 8 7
9 9 10 8 14 8 -17 48 10 -13 -5 -5 2 3 1 1 6 2 15 15 -3 -1 3 6 3 -4 -5 3 3 9 9 7
Height
5779 5784 5785 5790 5794 5795 5797 5799 5801 5803 5804 5805 5805 5806 5806 5806 5808 5810 5812 5814 5815 5818 5819 5820 5819 5818 5819 5818 5816 5815 5813 5812
5770 5778 5781 5784 5787 5787 5789 5792 5795 5798 5799 5800 5799 5801 5801 5801 5803 5805 5808 5810 5813 5815 5816 5817 5816 5816 5815 5815 5812 5812 5810 5810
5765 5772 5777 5778 5778 5779 5783 5785 5788 5792 5793 5795 5794 5795 5796 5797 5797 5799 5803 5808 5810 5813 5814 5814 5814 5813 5812 5811 5810 5808 5806 5807
5768 5769 5771 5774 5771 5771 5777 5780 5783 5786 5787 5789 5790 5791 5792 5793 5795 5797 5802 5805 5808 5809 5810 5810 5810 5810 5809 5809 5807 5806 5804 5804
5768 5769 5769 5768 5763 5771 5777 5774 5780 5781 5779 5781 5783 5788 5788 5789 5792 5796 5799 5803 5805 5806 5807 5807 5806 5807 5806 5805 5805 5802 5801 5799
5764 5766 5767 5768 5769 5772 5774 5776 5777 5776 5776 5778 5778 5781 5782 5786 5791 5795 5799 5801 5802 5803 5802 5803 5803 5803 5803 5801 5800 5797 5796 5795
5759 5761 5762 5763 5765 5767 5770 5770 5772 5774 5773 5775 5776 5777 5780 5783 5790 5794 5796 5799 5799 5800 5799 5800 5800 5799 5798 5797 5794 5794 5792 5790
5755 5755 5756 5754 5755 5762 5762 5763 5766 5769 5770 5771 5773 5775 5778 5783 5789 5792 5794 5796 5796 5796 5796 5796 5796 5794 5793 5791 5790 5789 5787 5784
5752 5749 5746 5749 5753 5756 5760 5760 5763 5764 5764 5766 5770 5774 5779 5783 5787 5790 5791 5792 5793 5793 5792 5792 5791 5790 5788 5787 5785 5782 5780 5777
5747 5746 5748 5749 5753 5756 5756 5756 5758 5760 5762 5767 5773 5775 5778 5781 5784 5785 5787 5787 5788 5788 5788 5787 5786 5784 5782 5781 5778 5776 5774 5770
5745 5745 5746 5748 5749 5753 5754 5757 5758 5760 5765 5768 5770 5774 5777 5780 5781 5782 5783 5783 5783 5783 5783 5781 5780 5778 5776 5774 5772 5769 5766 5762
5743 5744 5746 5748 5750 5750 5751 5755 5760 5763 5766 5766 5771 5774 5776 5777 5778 5778 5779 5780 5779 5779 5777 5776 5774 5772 5770 5767 5765 5761 5757 5754
5744 5747 5748 5748 5750 5751 5755 5758 5762 5764 5765 5768 5770 5771 5772 5773 5774 5774 5775 5775 5774 5774 5772 5770 5768 5764 5762 5760 5756 5754 5749 5745
5747 5748 5749 5752 5754 5755 5758 5760 5762 5764 5765 5766 5767 5768 5769 5769 5770 5770 5769 5770 5769 5767 5765 5762 5760 5757 5755 5751 5747 5742 5739 5735
5749 5750 5751 5752 5753 5755 5757 5759 5761 5762 5762 5763 5764 5765 5765 5765 5765 5764 5765 5764 5762 5760 5757 5754 5751 5750 5747 5742 5737 5731 5725 5719
5750 5750 5750 5752 5753 5755 5756 5757 5757 5757 5759 5760 5761 5761 5761 5760 5759 5760 5758 5757 5755 5752 5749 5746 5743 5739 5736 5732 5726 5720 5714 5710
5750 5750 5751 5752 5753 5753 5753 5754 5754 5754 5755 5756 5757 5757 5755 5754 5754 5753 5751 5749 5747 5744 5741 5737 5734 5729 5724 5718 5712 5706 5701 5696
5750 5750 5751 5750 5751 5750 5749 5749 5750 5750 5751 5751 5751 5750 5749 5748 5749 5747 5745 5741 5739 5735 5732 5727 5723 5719 5713 5708 5702 5696 5690 5683
5748 5748 5748 5748 5748 5748 5747 5747 5747 5746 5747 5745 5744 5743 5740 5739 5740 5738 5735 5732 5729 5725 5720 5716 5711 5707 5703 5697 5691 5686 5678 5670
5744 5743 5743 5744 5744 5743 5743 5741 5742 5741 5741 5740 5738 5736 5735 5732 5730 5727 5724 5721 5718 5714 5709 5704 5699 5695 5691 5685 5679 5672 5664 5656